GW1859 Weather Reports


time (UTC)temp
F
wind
direction
speed
knots
gust
knots
rain 1hr
in
rain 24hr
in
rain mn
in
humidity
%
barometer
mb
20260831024226 91 15 0.0 1.7 0.00 0.00 0.00 35 1013.2
20260831023726 91 91 2.6 2.6 0.00 0.00 0.00 35 1013.3
20260831023225 91 342 0.9 2.6 0.00 0.00 0.00 35 1013.3
20260831022721 91 5 0.9 1.7 0.00 0.00 0.00 34 1013.0
20260831022220 91 338 0.9 2.6 0.00 0.00 0.00 34 1013.3
20260831021720 92 48 0.0 3.5 0.00 0.00 0.00 34 1012.9
20260831021220 92 359 0.9 4.3 0.00 0.00 0.00 34 1013.2
20260831020717 92 35 0.0 2.6 0.00 0.00 0.00 34 1012.8
20260831020216 92 301 1.7 2.6 0.00 0.00 0.00 34 1012.8
20260831015712 92 17 0.9 2.6 0.00 0.00 0.00 34 1012.5
20260831015207 92 124 0.0 3.5 0.00 0.00 0.00 34 1012.6
20260831014702 93 250 0.9 4.3 0.00 0.00 0.00 33 1012.5
20260831014156 93 215 1.7 5.2 0.00 0.00 0.00 33 1012.4
20260831013653 93 206 0.0 2.6 0.00 0.00 0.00 33 1012.3
20260831013152 93 104 1.7 3.5 0.00 0.00 0.00 33 1012.2
20260831012647 94 41 0.9 2.6 0.00 0.00 0.00 33 1012.4
20260831012143 94 101 1.7 2.6 0.00 0.00 0.00 33 1012.1
20260831011641 94 53 1.7 3.5 0.00 0.00 0.00 33 1012.1
20260831011137 94 38 0.0 2.6 0.00 0.00 0.00 34 1012.2
20260831010633 95 354 0.9 2.6 0.00 0.00 0.00 33 1012.1
20260831010129 95 41 0.9 3.5 0.00 0.00 0.00 33 1012.0
20260831005628 96 37 1.7 2.6 0.00 0.00 0.00 33 1012.2
20260831005124 96 353 1.7 2.6 0.00 0.00 0.00 33 1012.1
20260831004619 97 351 1.7 5.2 0.00 0.00 0.00 32 1012.1
20260831004115 97 187 0.0 4.3 0.00 0.00 0.00 32 1012.2
20260831003611 98 120 2.6 3.5 0.00 0.00 0.00 32 1012.1
20260831003107 98 8 1.7 3.5 0.00 0.00 0.00 32 1012.0
20260831002605 99 120 1.7 3.5 0.00 0.00 0.00 31 1012.1
20260831002100 100 224 0.9 1.7 0.00 0.00 0.00 30 1011.7
20260831001556 100 4 1.7 2.6 0.00 0.00 0.00 30 1011.8
20260831001052 101 222 3.5 3.5 0.00 0.00 0.00 30 1012.3
20260831000548 101 1 1.7 5.2 0.00 0.00 0.00 29 1011.8
20260831000048 103 48 0.0 7.0 0.00 0.00 0.00 28 1012.1
20260830235547 103 165 1.7 7.0 0.00 0.00 0.00 27 1012.1
20260830235042 103 215 3.5 5.2 0.00 0.00 0.00 26 1012.1
20260830234543 104 246 3.5 4.3 0.00 0.00 0.00 26 1012.0
20260830234038 104 231 1.7 5.2 0.00 0.00 0.00 26 1011.8
20260830233533 104 225 1.7 14.8 0.00 0.00 0.00 26 1011.6
20260830233029 105 236 1.7 4.3 0.00 0.00 0.00 25 1012.0
20260830232525 105 126 3.5 7.0 0.00 0.00 0.00 25 1011.6
20260830232021 105 217 2.6 5.2 0.00 0.00 0.00 25 1011.7
20260830231517 105 202 4.3 4.3 0.00 0.00 0.00 25 1011.5
20260830231015 105 210 0.0 7.0 0.00 0.00 0.00 25 1011.5
20260830230511 106 187 1.7 5.2 0.00 0.00 0.00 25 1011.4
20260830230011 106 267 0.9 7.0 0.00 0.00 0.00 25 1011.5
20260830225506 106 262 3.5 5.2 0.00 0.00 0.00 25 1011.3
20260830225006 106 264 2.6 5.2 0.00 0.00 0.00 25 1011.4
20260830224504 107 237 4.3 7.0 0.00 0.00 0.00 25 1011.6
20260830224001 107 143 3.5 7.8 0.00 0.00 0.00 25 1011.2
20260830223458 107 91 1.7 5.2 0.00 0.00 0.00 25 1011.3
20260830222957 106 177 0.0 2.6 0.00 0.00 0.00 25 1011.4
20260830222452 107 224 5.2 7.8 0.00 0.00 0.00 25 1011.4
20260830221948 107 207 4.3 6.1 0.00 0.00 0.00 25 1011.2
20260830221444 106 162 3.5 5.2 0.00 0.00 0.00 24 1011.6
20260830220939 106 223 1.7 8.7 0.00 0.00 0.00 25 1011.3
20260830220439 106 344 1.7 6.1 0.00 0.00 0.00 25 1011.3
20260830215937 107 218 1.7 7.8 0.00 0.00 0.00 25 1011.4
20260830215432 107 198 1.7 7.0 0.00 0.00 0.00 25 1011.4
20260830214927 107 209 6.1 6.1 0.00 0.00 0.00 25 1011.4
20260830214422 107 254 3.5 9.6 0.00 0.00 0.00 24 1011.3
20260830213922 107 330 1.7 5.2 0.00 0.00 0.00 24 1011.6
20260830213418 107 227 2.6 9.6 0.00 0.00 0.00 24 1011.5
20260830212913 107 131 2.6 10.4 0.00 0.00 0.00 24 1011.4
20260830212409 107 280 5.2 5.2 0.00 0.00 0.00 24 1011.6
20260830211908 107 214 3.5 11.3 0.00 0.00 0.00 24 1011.7
20260830211408 106 213 1.7 7.0 0.00 0.00 0.00 25 1011.6
20260830210904 106 226 3.5 8.7 0.00 0.00 0.00 25 1011.8
20260830210403 106 248 6.1 10.4 0.00 0.00 0.00 24 1011.8
20260830205901 107 235 4.3 5.2 0.00 0.00 0.00 24 1011.7
20260830205400 107 342 1.7 9.6 0.00 0.00 0.00 25 1011.6
20260830204856 107 191 3.5 7.8 0.00 0.00 0.00 24 1011.7
20260830204354 107 247 3.5 7.8 0.00 0.00 0.00 24 1011.7
20260830203850 107 273 2.6 10.4 0.00 0.00 0.00 24 1012.1
20260830203347 107 189 3.5 7.0 0.00 0.00 0.00 24 1012.2
20260830202845 107 222 4.3 9.6 0.00 0.00 0.00 24 1011.8
20260830202341 107 251 1.7 4.3 0.00 0.00 0.00 25 1011.7
20260830201837 106 229 5.2 9.6 0.00 0.00 0.00 24 1012.4
20260830201336 107 217 7.0 9.6 0.00 0.00 0.00 24 1012.3
20260830200831 106 226 4.3 9.6 0.00 0.00 0.00 24 1012.2
20260830200331 106 197 3.5 7.0 0.00 0.00 0.00 24 1012.4
20260830195827 106 99 1.7 5.2 0.00 0.00 0.00 25 1012.5
20260830195326 106 219 2.6 5.2 0.00 0.00 0.00 24 1012.4
20260830194825 105 209 1.7 8.7 0.00 0.00 0.00 25 1012.4
20260830194324 106 144 2.6 7.8 0.00 0.00 0.00 25 1012.5
20260830193820 105 129 3.5 9.6 0.00 0.00 0.00 26 1012.6
20260830193319 104 195 3.5 11.3 0.00 0.00 0.00 27 1012.6
20260830192816 105 190 3.5 14.8 0.00 0.00 0.00 26 1012.7
20260830192315 105 116 1.7 10.4 0.00 0.00 0.00 27 1012.7
20260830191811 105 291 3.5 10.4 0.00 0.00 0.00 26 1012.6
20260830191310 105 232 1.7 11.3 0.00 0.00 0.00 26 1012.8
20260830190806 105 101 1.7 7.8 0.00 0.00 0.00 27 1012.6
20260830190301 104 304 1.7 5.2 0.00 0.00 0.00 28 1012.9
20260830185759 103 201 7.0 11.3 0.00 0.00 0.00 27 1012.7
20260830185255 104 231 4.3 9.6 0.00 0.00 0.00 28 1013.1
20260830184755 104 196 3.5 9.6 0.00 0.00 0.00 28 1013.1
20260830184254 103 256 2.6 8.7 0.00 0.00 0.00 29 1013.3
20260830183750 103 212 4.3 7.0 0.00 0.00 0.00 30 1013.3
20260830183244 102 232 2.6 9.6 0.00 0.00 0.00 31 1013.1
20260830182745 102 210 9.6 13.0 0.00 0.00 0.00 30 1013.4
20260830182241 101 242 2.6 8.7 0.00 0.00 0.00 30 1013.2
20260830181737 101 199 5.2 14.8 0.00 0.00 0.00 31 1013.2
20260830181232 101 245 7.0 14.8 0.00 0.00 0.00 31 1013.5
20260830180731 101 193 5.2 16.5 0.00 0.00 0.00 31 1013.4
20260830180226 101 255 1.7 7.8 0.00 0.00 0.00 32 1013.5
20260830175725 101 284 0.9 9.6 0.00 0.00 0.00 32 1013.7
20260830175221 101 173 5.2 12.2 0.00 0.00 0.00 32 1013.7
20260830174715 100 168 3.5 8.7 0.00 0.00 0.00 32 1013.7
20260830174211 100 170 2.6 10.4 0.00 0.00 0.00 33 1013.6
20260830173711 99 291 0.9 16.5 0.00 0.00 0.00 34 1013.8
20260830173206 99 174 3.5 6.1 0.00 0.00 0.00 34 1013.9
20260830172703 99 216 6.1 12.2 0.00 0.00 0.00 33 1013.9
20260830172159 98 198 7.0 11.3 0.00 0.00 0.00 34 1014.0
20260830171659 98 24 1.7 11.3 0.00 0.00 0.00 35 1014.1
20260830171154 98 297 3.5 6.1 0.00 0.00 0.00 35 1014.3
20260830170649 98 87 2.6 8.7 0.00 0.00 0.00 35 1014.3
20260830170148 97 72 1.7 8.7 0.00 0.00 0.00 36 1014.0
20260830165643 97 71 2.6 11.3 0.00 0.00 0.00 36 1014.2
20260830165139 96 209 4.3 11.3 0.00 0.00 0.00 36 1014.3
20260830164635 96 162 2.6 10.4 0.00 0.00 0.00 36 1014.3
20260830164131 96 4 3.5 10.4 0.00 0.00 0.00 37 1014.6
20260830163628 95 211 3.5 9.6 0.00 0.00 0.00 37 1014.7
20260830163127 95 199 7.0 16.5 0.00 0.00 0.00 37 1014.7
20260830162622 95 196 5.2 6.1 0.00 0.00 0.00 38 1014.7
20260830162119 94 234 4.3 9.6 0.00 0.00 0.00 38 1014.9
20260830161618 94 175 2.6 11.3 0.00 0.00 0.00 39 1014.7
20260830161113 94 252 5.2 12.2 0.00 0.00 0.00 38 1014.6
20260830160609 94 250 4.3 7.0 0.00 0.00 0.00 39 1014.9
20260830160104 93 216 5.2 13.0 0.00 0.00 0.00 39 1014.8
20260830155600 92 209 6.1 7.0 0.00 0.00 0.00 40 1014.7
20260830155055 92 179 5.2 9.6 0.00 0.00 0.00 40 1014.7
20260830154550 92 212 2.6 14.8 0.00 0.00 0.00 41 1014.7
20260830154047 92 205 3.5 4.3 0.00 0.00 0.00 40 1014.6
20260830153543 91 173 2.6 11.3 0.00 0.00 0.00 42 1014.6
20260830153042 91 259 4.3 7.8 0.00 0.00 0.00 41 1014.8
20260830152537 90 175 1.7 6.1 0.00 0.00 0.00 42 1014.6
20260830152037 89 197 0.9 9.6 0.00 0.00 0.00 43 1014.6
20260830151536 88 282 0.9 7.0 0.00 0.00 0.00 44 1014.8
20260830151031 88 331 2.6 6.1 0.00 0.00 0.00 44 1014.6
20260830150531 87 140 1.7 8.7 0.00 0.00 0.00 45 1014.6
20260830150026 87 192 1.7 9.6 0.00 0.00 0.00 46 1014.8
20260830145525 86 216 1.7 9.6 0.00 0.00 0.00 46 1014.7
20260830145021 86 358 1.7 7.0 0.00 0.00 0.00 46 1014.9
20260830144516 85 139 2.6 3.5 0.00 0.00 0.00 47 1014.8
20260830144012 85 196 3.5 7.8 0.00 0.00 0.00 47 1014.8
20260830143508 84 208 1.7 7.0 0.00 0.00 0.00 48 1015.0
20260830143006 84 163 3.5 5.2 0.00 0.00 0.00 48 1014.9
20260830142501 83 168 1.7 5.2 0.00 0.00 0.00 49 1014.9
20260830141955 83 247 7.0 7.0 0.00 0.00 0.00 50 1015.0
20260830141451 83 101 1.7 4.3 0.00 0.00 0.00 50 1014.9
20260830140946 82 265 0.0 5.2 0.00 0.00 0.00 51 1015.0
20260830140441 82 255 0.9 5.2 0.00 0.00 0.00 51 1015.1
20260830135940 81 268 3.5 4.3 0.00 0.00 0.00 51 1015.0
20260830135436 81 240 2.6 5.2 0.00 0.00 0.00 52 1015.4
20260830134931 80 135 1.7 4.3 0.00 0.00 0.00 53 1015.2
20260830134427 80 256 2.6 5.2 0.00 0.00 0.00 53 1015.3
20260830133922 80 191 1.7 4.3 0.00 0.00 0.00 54 1015.5
20260830133418 79 193 4.3 5.2 0.00 0.00 0.00 54 1015.6
20260830132919 79 17 1.7 4.3 0.00 0.00 0.00 55 1015.1
20260830132415 79 11 0.0 5.2 0.00 0.00 0.00 55 1015.3
20260830131914 78 97 2.6 5.2 0.00 0.00 0.00 55 1015.3
20260830131413 78 34 1.7 4.3 0.00 0.00 0.00 57 1015.3
20260830130908 78 191 0.0 3.5 0.00 0.00 0.00 56 1015.3
20260830130404 77 277 2.6 3.5 0.00 0.00 0.00 57 1015.1
20260830125902 77 32 0.0 2.6 0.00 0.00 0.00 58 1015.3
20260830125359 77 304 1.7 3.5 0.00 0.00 0.00 57 1015.3
20260830124856 77 52 1.7 2.6 0.00 0.00 0.00 57 1015.1
20260830124351 76 22 1.7 3.5 0.00 0.00 0.00 58 1015.3
20260830123847 76 174 0.9 1.7 0.00 0.00 0.00 58 1015.3
20260830123344 76 101 1.7 2.6 0.00 0.00 0.00 58 1015.3
20260830122841 76 323 2.6 5.2 0.00 0.00 0.00 58 1015.3
20260830122336 76 51 0.9 3.5 0.00 0.00 0.00 58 1015.2
20260830121831 76 12 0.0 2.6 0.00 0.00 0.00 58 1015.2
20260830121331 76 286 1.7 3.5 0.00 0.00 0.00 58 1015.1
20260830120826 76 184 0.9 2.6 0.00 0.00 0.00 58 1015.0
20260830120322 76 164 0.9 4.3 0.00 0.00 0.00 58 1015.2
20260830115818 76 0 0.0 3.5 0.00 0.00 0.00 58 1014.8
20260830115314 76 328 1.7 2.6 0.00 0.00 0.00 58 1014.7
20260830114810 76 173 0.9 3.5 0.00 0.00 0.00 58 1015.0
20260830114306 76 347 1.7 1.7 0.00 0.00 0.00 58 1014.7
20260830113800 76 277 2.6 2.6 0.00 0.00 0.00 58 1014.8
20260830113255 76 41 0.0 1.7 0.00 0.00 0.00 58 1015.0
20260830112751 76 341 1.7 3.5 0.00 0.00 0.00 59 1014.7
20260830112247 76 339 0.9 3.5 0.00 0.00 0.00 58 1015.1
20260830111743 76 14 0.0 2.6 0.00 0.00 0.00 58 1014.9
20260830111238 76 230 0.0 2.6 0.00 0.00 0.00 58 1015.1
20260830110738 76 131 1.7 3.5 0.00 0.00 0.00 58 1015.0
20260830110235 76 345 0.0 2.6 0.00 0.00 0.00 58 1015.2
20260830105733 76 65 0.0 1.7 0.00 0.00 0.00 58 1015.2
20260830105230 76 12 0.9 1.7 0.00 0.00 0.00 58 1015.0
20260830104726 76 9 0.9 2.6 0.00 0.00 0.00 58 1015.2
20260830104223 76 285 0.9 2.6 0.00 0.00 0.00 58 1014.8
20260830103722 76 178 1.7 1.7 0.00 0.00 0.00 58 1014.6
20260830103218 76 114 1.7 2.6 0.00 0.00 0.00 59 1014.7
20260830102715 76 351 1.7 1.7 0.00 0.00 0.00 58 1015.1
20260830102212 76 219 1.7 1.7 0.00 0.00 0.00 58 1015.0
20260830101708 76 89 0.0 1.7 0.00 0.00 0.00 58 1015.0
20260830101203 76 311 0.0 3.5 0.00 0.00 0.00 58 1014.8
20260830100657 76 5 0.9 1.7 0.00 0.00 0.00 58 1015.1
20260830100156 76 88 0.9 1.7 0.00 0.00 0.00 58 1014.9
20260830095655 76 337 0.0 3.5 0.00 0.00 0.00 58 1014.9
20260830095152 76 132 0.0 2.6 0.00 0.00 0.00 58 1015.0
20260830094647 76 344 0.0 0.9 0.00 0.00 0.00 58 1014.8
20260830094143 76 16 0.9 1.7 0.00 0.00 0.00 57 1014.9
20260830093638 77 300 1.7 2.6 0.00 0.00 0.00 57 1014.8
20260830093135 77 209 0.0 1.7 0.00 0.00 0.00 57 1015.2
20260830092629 77 6 0.9 2.6 0.00 0.00 0.00 56 1014.9
20260830092127 77 336 0.9 2.6 0.00 0.00 0.00 56 1014.9
20260830091626 78 326 0.0 1.7 0.00 0.00 0.00 55 1014.9
20260830091126 78 197 2.6 2.6 0.00 0.00 0.00 54 1014.6
20260830090621 78 14 0.0 3.5 0.00 0.00 0.00 54 1014.5
20260830090116 79 302 0.0 3.5 0.00 0.00 0.00 54 1014.7
20260830085615 79 219 0.0 1.7 0.00 0.00 0.00 53 1014.8
20260830085112 79 70 0.9 1.7 0.00 0.00 0.00 53 1014.9
20260830084607 79 180 2.6 2.6 0.00 0.00 0.00 53 1014.7
20260830084107 79 331 0.0 2.6 0.00 0.00 0.00 52 1014.9
20260830083603 80 228 1.7 1.7 0.00 0.00 0.00 52 1014.7
20260830083102 80 263 0.9 1.7 0.00 0.00 0.00 51 1015.0
20260830082557 80 168 0.0 2.6 0.00 0.00 0.00 51 1015.0
20260830082053 80 238 0.9 1.7 0.00 0.00 0.00 50 1014.7
20260830081549 81 203 1.7 4.3 0.00 0.00 0.00 50 1014.8
20260830081048 81 216 1.7 3.5 0.00 0.00 0.00 50 1014.6
20260830080543 81 190 0.0 3.5 0.00 0.00 0.00 50 1014.6
20260830080038 81 158 0.0 4.3 0.00 0.00 0.00 49 1014.7
20260830075538 81 216 2.6 5.2 0.00 0.00 0.00 49 1014.6
20260830075033 81 214 4.3 4.3 0.00 0.00 0.00 49 1014.6
20260830074529 82 42 0.9 3.5 0.00 0.00 0.00 48 1014.7
20260830074025 82 177 0.9 5.2 0.00 0.00 0.00 48 1014.7
20260830073520 82 319 0.9 3.5 0.00 0.00 0.00 48 1014.8
20260830073016 82 334 1.7 3.5 0.00 0.00 0.00 48 1014.6
20260830072511 82 194 1.7 3.5 0.00 0.00 0.00 48 1014.5
20260830072011 82 11 0.9 2.6 0.00 0.00 0.00 48 1014.6
20260830071507 82 292 0.9 2.6 0.00 0.00 0.00 48 1014.3
20260830071004 83 248 0.9 2.6 0.00 0.00 0.00 47 1014.5
20260830070459 83 109 0.0 2.6 0.00 0.00 0.00 47 1014.6
20260830065958 83 2 1.7 3.5 0.00 0.00 0.00 47 1014.5
20260830065458 83 24 0.9 2.6 0.00 0.00 0.00 46 1014.3
20260830064956 83 25 0.9 4.3 0.00 0.00 0.00 46 1014.7
20260830064452 83 271 0.0 3.5 0.00 0.00 0.00 46 1014.8
20260830063952 84 295 1.7 2.6 0.00 0.00 0.00 46 1014.6
20260830063452 84 87 0.9 7.8 0.00 0.00 0.00 45 1014.7
20260830062951 84 216 3.5 3.5 0.00 0.00 0.00 45 1014.5
20260830062450 84 313 1.7 3.5 0.00 0.00 0.00 45 1014.7
20260830061945 84 291 1.7 3.5 0.00 0.00 0.00 45 1014.8
20260830061440 84 44 1.7 2.6 0.00 0.00 0.00 45 1014.6
20260830060937 84 194 2.6 3.5 0.00 0.00 0.00 45 1014.5
20260830060433 84 50 1.7 3.5 0.00 0.00 0.00 45 1014.6
20260830055928 84 1 1.7 3.5 0.00 0.00 0.00 45 1014.2
20260830055424 84 18 1.7 1.7 0.00 0.00 0.00 45 1014.5
20260830054919 84 87 1.7 2.6 0.00 0.00 0.00 45 1014.6
20260830054416 84 279 1.7 2.6 0.00 0.00 0.00 45 1014.6
20260830053910 85 35 2.6 2.6 0.00 0.00 0.00 44 1014.6
20260830053406 85 65 1.7 2.6 0.00 0.00 0.00 44 1014.6
20260830052905 85 50 1.7 2.6 0.00 0.00 0.00 44 1014.6
20260830052401 85 67 1.7 1.7 0.00 0.00 0.00 44 1014.6
20260830051856 85 15 1.7 3.5 0.00 0.00 0.00 44 1014.7
20260830051351 85 334 0.9 4.3 0.00 0.00 0.00 44 1014.5
20260830050850 85 177 0.0 1.7 0.00 0.00 0.00 43 1014.8
20260830050346 86 63 0.9 3.5 0.00 0.00 0.00 43 1014.7
20260830045844 86 151 1.7 3.5 0.00 0.00 0.00 43 1015.0
20260830045339 86 117 0.0 3.5 0.00 0.00 0.00 43 1014.8
20260830044838 86 117 1.7 2.6 0.00 0.00 0.00 42 1014.6
20260830044334 86 87 0.0 2.6 0.00 0.00 0.00 42 1014.7
20260830043829 86 327 2.6 4.3 0.00 0.00 0.00 42 1014.6
20260830043329 87 251 1.7 3.5 0.00 0.00 0.00 42 1014.7
20260830042827 87 287 0.9 4.3 0.00 0.00 0.00 41 1014.7
20260830042322 87 63 0.9 3.5 0.00 0.00 0.00 41 1014.6
20260830041821 87 158 1.7 4.3 0.00 0.00 0.00 41 1014.5
20260830041320 87 7 0.9 3.5 0.00 0.00 0.00 41 1014.6
20260830040816 87 7 0.0 4.3 0.00 0.00 0.00 41 1014.5
20260830040312 87 42 0.0 2.6 0.00 0.00 0.00 41 1014.6
20260830035811 87 126 2.6 3.5 0.00 0.00 0.00 40 1014.5
20260830035310 87 86 1.7 3.5 0.00 0.00 0.00 41 1014.8
20260830034806 87 96 1.7 3.5 0.00 0.00 0.00 40 1014.3
20260830034306 87 71 1.7 3.5 0.00 0.00 0.00 41 1014.7
20260830033802 87 320 0.0 1.7 0.00 0.00 0.00 40 1014.5
20260830033302 87 100 1.7 3.5 0.00 0.00 0.00 40 1014.5
20260830032757 88 95 0.0 1.7 0.00 0.00 0.00 39 1014.7
20260830032251 88 61 2.6 2.6 0.00 0.00 0.00 39 1014.8
20260830031746 88 82 0.9 2.6 0.00 0.00 0.00 39 1014.3
20260830031241 88 347 0.9 2.6 0.00 0.00 0.00 38 1014.2
20260830030737 88 71 2.6 2.6 0.00 0.00 0.00 38 1014.2
20260830030233 88 103 0.9 3.5 0.00 0.00 0.00 38 1014.3
20260830025732 88 63 0.9 2.6 0.00 0.00 0.00 38 1014.0
20260830025231 89 32 1.7 3.5 0.00 0.00 0.00 38 1014.1
20260830024731 88 243 0.0 2.6 0.00 0.00 0.00 38 1014.3